Time,TemperatureF,DewpointF,PressureIn,WindDirection,WindDirectionDegrees,WindSpeedMPH,WindSpeedGustMPH,Humidity,HourlyPrecipIn,Conditions,Clouds,dailyrainin,SoftwareType,DateUTC
2013-05-23 00:03:00,53.0,52.0,29.76,NNE,29,8.0,10.0,97,0.02,,,0.16,,2013-05-23 04:03:00,
2013-05-23 00:12:00,53.0,52.0,29.76,NNE,29,8.0,10.0,97,0.02,,,0.16,,2013-05-23 04:12:00,
2013-05-23 00:22:00,53.0,52.0,29.76,NNE,29,7.0,10.0,98,0.02,,,0.17,,2013-05-23 04:22:00,
2013-05-23 00:33:00,53.0,52.0,29.76,North,9,4.0,8.0,98,0.03,,,0.18,,2013-05-23 04:33:00,
2013-05-23 00:43:00,53.0,52.0,29.76,North,9,4.0,8.0,98,0.03,,,0.18,,2013-05-23 04:43:00,
2013-05-23 00:52:00,53.0,52.0,29.77,NNE,31,4.0,8.0,98,0.02,,,0.18,,2013-05-23 04:52:00,
2013-05-23 01:02:00,53.0,52.0,29.77,North,11,4.0,9.0,98,0.02,,,0.19,,2013-05-23 05:02:00,
2013-05-23 01:11:00,53.0,52.0,29.77,North,11,4.0,9.0,98,0.02,,,0.19,,2013-05-23 05:11:00,
2013-05-23 01:22:00,52.0,51.0,29.77,North,359,3.0,8.0,98,0.02,,,0.19,,2013-05-23 05:22:00,
2013-05-23 01:32:00,52.0,51.0,29.77,North,358,3.0,7.0,98,0.02,,,0.20,,2013-05-23 05:32:00,
2013-05-23 01:42:00,52.0,51.0,29.78,North,359,5.0,10.0,98,0.02,,,0.20,,2013-05-23 05:42:00,
2013-05-23 01:52:00,52.0,51.0,29.78,North,359,5.0,10.0,98,0.02,,,0.20,,2013-05-23 05:52:00,
2013-05-23 02:02:00,52.0,51.0,29.78,NNE,13,6.0,10.0,97,0.02,,,0.21,,2013-05-23 06:02:00,
2013-05-23 02:12:00,52.0,51.0,29.78,North,357,3.0,10.0,97,0.02,,,0.21,,2013-05-23 06:12:00,
2013-05-23 02:21:00,52.0,51.0,29.78,North,357,3.0,10.0,97,0.02,,,0.21,,2013-05-23 06:21:00,
2013-05-23 02:32:00,52.0,51.0,29.78,North,357,3.0,10.0,97,0.02,,,0.21,,2013-05-23 06:32:00,
2013-05-23 02:42:00,52.0,51.0,29.78,North,357,3.0,10.0,97,0.02,,,0.21,,2013-05-23 06:42:00,
2013-05-23 02:52:00,52.0,51.0,29.79,NNW,342,4.0,9.0,96,0.02,,,0.22,,2013-05-23 06:52:00,
2013-05-23 03:02:00,51.0,50.0,29.79,NNW,344,3.0,9.0,96,0.02,,,0.22,,2013-05-23 07:02:00,
2013-05-23 03:11:00,51.0,50.0,29.79,NNW,344,3.0,9.0,96,0.02,,,0.22,,2013-05-23 07:11:00,
2013-05-23 03:21:00,50.0,49.0,29.80,North,349,8.0,10.0,96,0.02,,,0.23,,2013-05-23 07:21:00,
2013-05-23 03:32:00,50.0,49.0,29.79,North,5,6.0,10.0,97,0.02,,,0.23,,2013-05-23 07:32:00,
2013-05-23 03:42:00,50.0,49.0,29.80,North,356,8.0,10.0,98,0.03,,,0.24,,2013-05-23 07:42:00,
2013-05-23 03:59:00,50.0,49.0,29.80,North,356,8.0,10.0,98,0.03,,,0.24,,2013-05-23 07:59:00,
2013-05-23 04:12:00,50.0,49.0,29.80,North,5,15.0,16.0,98,0.03,,,0.25,,2013-05-23 08:12:00,
2013-05-23 04:22:00,50.0,49.0,29.81,North,8,10.0,17.0,97,0.03,,,0.25,,2013-05-23 08:22:00,
2013-05-23 04:32:00,49.0,48.0,29.82,NNE,25,16.0,16.0,97,0.03,,,0.26,,2013-05-23 08:32:00,
2013-05-23 04:42:00,49.0,48.0,29.82,NNE,25,16.0,16.0,97,0.03,,,0.26,,2013-05-23 08:42:00,
2013-05-23 04:52:00,49.0,48.0,29.82,NNE,18,8.0,19.0,96,0.02,,,0.26,,2013-05-23 08:52:00,
2013-05-23 05:02:00,48.0,47.0,29.83,North,11,4.0,10.0,96,0.02,,,0.27,,2013-05-23 09:02:00,
2013-05-23 05:11:00,48.0,47.0,29.83,North,11,4.0,10.0,96,0.02,,,0.27,,2013-05-23 09:11:00,
2013-05-23 05:22:00,48.0,47.0,29.83,North,4,3.0,11.0,96,0.03,,,0.28,,2013-05-23 09:22:00,
2013-05-23 05:33:00,48.0,47.0,29.84,NNE,15,5.0,9.0,96,0.02,,,0.28,,2013-05-23 09:33:00,
2013-05-23 05:42:00,48.0,47.0,29.84,NNE,15,5.0,9.0,96,0.02,,,0.28,,2013-05-23 09:42:00,
2013-05-23 05:53:00,48.0,47.0,29.84,NNE,12,7.0,12.0,96,0.03,,,0.29,,2013-05-23 09:53:00,
2013-05-23 06:03:00,48.0,47.0,29.86,NNE,16,9.0,9.0,96,0.03,,,0.29,,2013-05-23 10:03:00,
2013-05-23 06:13:00,48.0,47.0,29.86,NNE,16,9.0,9.0,96,0.03,,,0.29,,2013-05-23 10:13:00,
2013-05-23 06:22:00,48.0,47.0,29.86,NNE,13,6.0,10.0,96,0.03,,,0.30,,2013-05-23 10:22:00,
2013-05-23 06:32:00,47.0,46.0,29.89,NNE,22,10.0,17.0,95,0.03,,,0.31,,2013-05-23 10:32:00,
2013-05-23 06:42:00,47.0,46.0,29.89,NNE,22,10.0,17.0,95,0.03,,,0.31,,2013-05-23 10:42:00,
2013-05-23 06:52:00,46.0,45.0,29.89,NNE,21,10.0,14.0,95,0.04,,,0.32,,2013-05-23 10:52:00,
2013-05-23 07:02:00,46.0,45.0,29.89,North,354,13.0,13.0,95,0.04,,,0.33,,2013-05-23 11:02:00,
2013-05-23 07:11:00,46.0,45.0,29.89,North,354,13.0,13.0,95,0.04,,,0.33,,2013-05-23 11:11:00,
2013-05-23 07:22:00,46.0,45.0,29.89,North,354,13.0,13.0,95,0.04,,,0.33,,2013-05-23 11:22:00,
2013-05-23 07:32:00,44.0,43.0,29.91,NNE,22,10.0,13.0,95,0.03,,,0.34,,2013-05-23 11:32:00,
2013-05-23 07:42:00,44.0,43.0,29.91,NNE,22,10.0,13.0,95,0.03,,,0.34,,2013-05-23 11:42:00,
2013-05-23 07:52:00,44.0,43.0,29.92,NNE,21,5.0,15.0,95,0.04,,,0.35,,2013-05-23 11:52:00,
2013-05-23 08:01:00,44.0,42.0,29.93,North,6,5.0,10.0,94,0.04,,,0.36,,2013-05-23 12:01:00,
2013-05-23 08:12:00,44.0,42.0,29.93,North,6,5.0,10.0,94,0.04,,,0.36,,2013-05-23 12:12:00,
2013-05-23 08:21:00,44.0,42.0,29.93,North,6,5.0,10.0,94,0.04,,,0.36,,2013-05-23 12:21:00,
2013-05-23 08:32:00,44.0,42.0,29.94,North,10,6.0,12.0,94,0.03,,,0.36,,2013-05-23 12:32:00,
2013-05-23 08:42:00,44.0,42.0,29.94,North,10,6.0,12.0,94,0.03,,,0.36,,2013-05-23 12:42:00,
2013-05-23 08:52:00,44.0,42.0,29.96,North,4,4.0,12.0,94,0.04,,,0.38,,2013-05-23 12:52:00,
2013-05-23 09:02:00,43.0,41.0,29.97,North,1,6.0,9.0,94,0.04,,,0.38,,2013-05-23 13:02:00,
2013-05-23 09:11:00,43.0,41.0,29.97,North,1,6.0,9.0,94,0.04,,,0.38,,2013-05-23 13:11:00,
2013-05-23 09:22:00,43.0,42.0,29.97,North,7,6.0,8.0,95,0.03,,,0.39,,2013-05-23 13:22:00,
2013-05-23 09:32:00,44.0,43.0,29.98,North,0,6.0,10.0,95,0.04,,,0.40,,2013-05-23 13:32:00,
2013-05-23 09:42:00,44.0,43.0,29.98,North,0,6.0,10.0,95,0.04,,,0.40,,2013-05-23 13:42:00,
2013-05-23 09:52:00,44.0,43.0,29.98,North,0,6.0,10.0,95,0.04,,,0.40,,2013-05-23 13:52:00,
2013-05-23 10:02:00,43.0,41.0,30.00,NNW,344,10.0,10.0,94,0.03,,,0.41,,2013-05-23 14:02:00,
2013-05-23 10:11:00,43.0,41.0,30.00,NNW,344,10.0,10.0,94,0.03,,,0.41,,2013-05-23 14:11:00,
2013-05-23 10:21:00,43.0,41.0,30.01,NNE,23,4.0,12.0,94,0.03,,,0.42,,2013-05-23 14:21:00,
2013-05-23 10:32:00,43.0,41.0,30.01,NNE,16,6.0,14.0,94,0.03,,,0.42,,2013-05-23 14:32:00,
2013-05-23 10:42:00,43.0,41.0,30.01,NNE,16,6.0,14.0,94,0.03,,,0.42,,2013-05-23 14:42:00,
2013-05-23 10:52:00,42.0,40.0,30.02,NNW,347,9.0,17.0,94,0.03,,,0.43,,2013-05-23 14:52:00,
2013-05-23 11:01:00,41.0,39.0,30.03,NNE,16,10.0,13.0,94,0.02,,,0.43,,2013-05-23 15:01:00,
2013-05-23 11:11:00,41.0,39.0,30.03,NNE,16,10.0,13.0,94,0.02,,,0.43,,2013-05-23 15:11:00,
2013-05-23 11:22:00,41.0,39.0,30.04,NNW,346,4.0,12.0,94,0.03,,,0.44,,2013-05-23 15:22:00,
2013-05-23 11:33:00,41.0,39.0,30.04,NNW,346,4.0,12.0,94,0.03,,,0.44,,2013-05-23 15:33:00,
2013-05-23 11:42:00,41.0,39.0,30.04,NNW,346,4.0,12.0,94,0.03,,,0.44,,2013-05-23 15:42:00,
2013-05-23 11:53:00,42.0,40.0,30.06,NNW,347,8.0,10.0,93,0.03,,,0.45,,2013-05-23 15:53:00,
2013-05-23 12:03:00,42.0,40.0,30.06,NNE,19,9.0,11.0,91,0.03,,,0.46,,2013-05-23 16:03:00,
2013-05-23 12:13:00,42.0,40.0,30.06,NNE,19,9.0,11.0,91,0.03,,,0.46,,2013-05-23 16:13:00,
2013-05-23 12:23:00,42.0,39.0,30.07,NNE,20,6.0,10.0,89,0.03,,,0.46,,2013-05-23 16:23:00,
2013-05-23 12:33:00,43.0,39.0,30.07,North,358,10.0,16.0,86,0.03,,,0.47,,2013-05-23 16:33:00,
2013-05-23 12:42:00,43.0,39.0,30.07,North,358,10.0,16.0,86,0.03,,,0.47,,2013-05-23 16:42:00,
2013-05-23 12:52:00,42.0,37.0,30.08,NNE,30,10.0,22.0,83,0.02,,,0.47,,2013-05-23 16:52:00,
2013-05-23 13:03:00,42.0,37.0,30.08,NNW,338,14.0,17.0,82,0.03,,,0.48,,2013-05-23 17:03:00,
2013-05-23 13:11:00,42.0,37.0,30.08,NNW,338,14.0,17.0,82,0.03,,,0.48,,2013-05-23 17:11:00,
2013-05-23 13:23:00,43.0,37.0,30.08,NNW,346,9.0,19.0,80,0.02,,,0.48,,2013-05-23 17:23:00,
2013-05-23 13:33:00,43.0,36.0,30.09,North,351,5.0,20.0,77,0.03,,,0.49,,2013-05-23 17:33:00,
2013-05-23 13:43:00,43.0,36.0,30.09,North,351,5.0,20.0,77,0.03,,,0.49,,2013-05-23 17:43:00,
2013-05-23 13:52:00,43.0,37.0,30.09,North,5,10.0,17.0,78,0.02,,,0.49,,2013-05-23 17:52:00,
2013-05-23 14:01:00,44.0,37.0,30.10,NNE,15,11.0,17.0,77,0.02,,,0.50,,2013-05-23 18:01:00,
2013-05-23 14:11:00,44.0,37.0,30.10,NNE,15,11.0,17.0,77,0.02,,,0.50,,2013-05-23 18:11:00,
2013-05-23 14:22:00,45.0,37.0,30.10,North,9,4.0,19.0,73,0.02,,,0.50,,2013-05-23 18:22:00,
2013-05-23 14:32:00,44.0,36.0,30.10,North,356,10.0,19.0,72,0.02,,,0.50,,2013-05-23 18:32:00,
2013-05-23 14:42:00,44.0,36.0,30.10,North,356,10.0,19.0,72,0.02,,,0.50,,2013-05-23 18:42:00,
2013-05-23 14:52:00,45.0,37.0,30.10,NNW,345,14.0,20.0,73,0.03,,,0.51,,2013-05-23 18:52:00,
2013-05-23 15:01:00,45.0,37.0,30.11,NNW,342,9.0,22.0,72,0.02,,,0.51,,2013-05-23 19:01:00,
2013-05-23 15:11:00,45.0,37.0,30.11,NNW,342,9.0,22.0,72,0.02,,,0.51,,2013-05-23 19:11:00,
2013-05-23 15:21:00,46.0,38.0,30.11,North,351,9.0,18.0,73,0.02,,,0.52,,2013-05-23 19:21:00,
2013-05-23 15:32:00,46.0,37.0,30.11,North,3,15.0,19.0,72,0.02,,,0.52,,2013-05-23 19:32:00,
2013-05-23 15:42:00,46.0,37.0,30.12,North,349,10.0,20.0,70,0.02,,,0.53,,2013-05-23 19:42:00,
2013-05-23 15:52:00,46.0,37.0,30.12,North,349,10.0,20.0,70,0.02,,,0.53,,2013-05-23 19:52:00,
2013-05-23 16:02:00,46.0,37.0,30.11,NNW,344,16.0,20.0,70,0.02,,,0.53,,2013-05-23 20:02:00,
2013-05-23 16:11:00,46.0,37.0,30.11,NNW,344,16.0,20.0,70,0.02,,,0.53,,2013-05-23 20:11:00,
2013-05-23 16:21:00,47.0,37.0,30.12,NNW,343,16.0,20.0,69,0.01,,,0.53,,2013-05-23 20:21:00,
2013-05-23 16:32:00,47.0,37.0,30.12,North,351,12.0,19.0,67,0.02,,,0.54,,2013-05-23 20:32:00,
2013-05-23 16:42:00,47.0,37.0,30.12,North,351,12.0,19.0,67,0.02,,,0.54,,2013-05-23 20:42:00,
2013-05-23 16:52:00,47.0,37.0,30.13,North,351,20.0,22.0,68,0.02,,,0.53,,2013-05-23 20:52:00,
2013-05-23 17:01:00,46.0,36.0,30.13,North,350,10.0,22.0,67,0.01,,,0.53,,2013-05-23 21:01:00,
2013-05-23 17:11:00,46.0,36.0,30.13,North,350,10.0,22.0,67,0.01,,,0.53,,2013-05-23 21:11:00,
2013-05-23 17:22:00,46.0,36.0,30.13,North,1,10.0,23.0,67,0.01,,,0.53,,2013-05-23 21:22:00,
2013-05-23 17:32:00,47.0,36.0,30.14,North,0,11.0,22.0,66,0.01,,,0.52,,2013-05-23 21:32:00,
2013-05-23 17:43:00,47.0,36.0,30.14,North,0,11.0,22.0,66,0.01,,,0.52,,2013-05-23 21:43:00,
2013-05-23 17:53:00,47.0,37.0,30.14,North,356,16.0,23.0,67,0.01,,,0.52,,2013-05-23 21:53:00,
2013-05-23 18:03:00,47.0,37.0,30.14,NNW,348,8.0,20.0,68,0.01,,,0.52,,2013-05-23 22:03:00,
2013-05-23 18:12:00,47.0,37.0,30.14,NNW,348,8.0,20.0,68,0.01,,,0.52,,2013-05-23 22:12:00,
2013-05-23 18:22:00,47.0,37.0,30.14,North,0,13.0,20.0,67,0.01,,,0.52,,2013-05-23 22:22:00,
2013-05-23 18:33:00,46.0,35.0,30.15,NNW,342,14.0,19.0,66,0.01,,,0.52,,2013-05-23 22:33:00,
2013-05-23 18:42:00,46.0,35.0,30.15,NNW,342,14.0,19.0,66,0.01,,,0.52,,2013-05-23 22:42:00,
2013-05-23 18:52:00,46.0,36.0,30.15,North,351,10.0,20.0,67,0.01,,,0.52,,2013-05-23 22:52:00,
2013-05-23 19:02:00,46.0,35.0,30.16,North,356,9.0,20.0,66,0.00,,,0.51,,2013-05-23 23:02:00,
2013-05-23 19:11:00,46.0,35.0,30.16,North,357,10.0,22.0,66,0.00,,,0.50,,2013-05-23 23:11:00,
2013-05-23 19:21:00,46.0,35.0,30.16,North,357,10.0,22.0,66,0.00,,,0.50,,2013-05-23 23:21:00,
2013-05-23 19:32:00,46.0,35.0,30.17,North,2,7.0,20.0,66,0.00,,,0.48,,2013-05-23 23:32:00,
2013-05-23 19:42:00,46.0,35.0,30.17,North,2,7.0,20.0,66,0.00,,,0.48,,2013-05-23 23:42:00,
2013-05-23 19:52:00,46.0,36.0,30.18,NNW,348,4.0,17.0,67,0.00,,,0.47,,2013-05-23 23:52:00,
2013-05-23 20:01:00,46.0,36.0,30.19,North,359,6.0,20.0,69,0.00,,,0.47,,2013-05-24 00:01:00,
2013-05-23 20:12:00,46.0,36.0,30.19,North,359,6.0,20.0,69,0.00,,,0.47,,2013-05-24 00:12:00,
2013-05-23 20:21:00,45.0,35.0,30.19,NNW,347,12.0,20.0,69,0.00,,,0.46,,2013-05-24 00:21:00,
2013-05-23 20:32:00,45.0,36.0,30.20,NNW,337,10.0,18.0,70,0.00,,,0.45,,2013-05-24 00:32:00,
2013-05-23 20:42:00,45.0,36.0,30.20,NNW,337,10.0,18.0,70,0.00,,,0.45,,2013-05-24 00:42:00,
2013-05-23 20:52:00,45.0,36.0,30.20,North,5,9.0,14.0,70,0.00,,,0.45,,2013-05-24 00:52:00,
2013-05-23 21:01:00,44.0,35.0,30.21,NNE,21,7.0,17.0,71,0.00,,,0.45,,2013-05-24 01:01:00,
2013-05-23 21:12:00,44.0,35.0,30.21,NNE,21,7.0,17.0,71,0.00,,,0.45,,2013-05-24 01:12:00,
2013-05-23 21:22:00,44.0,36.0,30.21,NNW,347,7.0,15.0,72,0.00,,,0.44,,2013-05-24 01:22:00,
2013-05-23 21:32:00,43.0,34.0,30.21,North,9,9.0,17.0,71,0.00,,,0.44,,2013-05-24 01:32:00,
2013-05-23 21:42:00,43.0,34.0,30.21,North,9,9.0,17.0,71,0.00,,,0.44,,2013-05-24 01:42:00,
2013-05-23 21:52:00,43.0,34.0,30.21,North,9,9.0,17.0,71,0.00,,,0.44,,2013-05-24 01:52:00,
2013-05-23 22:02:00,43.0,34.0,30.22,North,2,6.0,17.0,71,0.00,,,0.43,,2013-05-24 02:02:00,
2013-05-23 22:12:00,43.0,34.0,30.22,North,2,6.0,17.0,71,0.00,,,0.43,,2013-05-24 02:12:00,
2013-05-23 22:22:00,43.0,34.0,30.23,North,357,9.0,14.0,71,0.00,,,0.42,,2013-05-24 02:22:00,
2013-05-23 22:32:00,42.0,34.0,30.24,NNE,13,13.0,17.0,72,0.00,,,0.42,,2013-05-24 02:32:00,
2013-05-23 22:42:00,42.0,34.0,30.24,NNE,13,13.0,17.0,72,0.00,,,0.42,,2013-05-24 02:42:00,
2013-05-23 22:52:00,42.0,34.0,30.24,North,358,7.0,17.0,72,0.00,,,0.41,,2013-05-24 02:52:00,
2013-05-23 23:02:00,42.0,34.0,30.24,North,5,10.0,17.0,72,0.00,,,0.40,,2013-05-24 03:02:00,
2013-05-23 23:11:00,42.0,34.0,30.25,North,5,3.0,15.0,73,0.00,,,0.40,,2013-05-24 03:11:00,
2013-05-23 23:22:00,42.0,34.0,30.25,North,5,3.0,15.0,73,0.00,,,0.40,,2013-05-24 03:22:00,
2013-05-23 23:33:00,41.0,33.0,30.25,NNE,15,9.0,14.0,74,0.00,,,0.40,,2013-05-24 03:33:00,
2013-05-23 23:42:00,41.0,33.0,30.25,NNE,15,9.0,14.0,74,0.00,,,0.40,,2013-05-24 03:42:00,
2013-05-23 23:53:00,41.0,34.0,30.25,North,353,8.0,15.0,76,0.00,,,0.39,,2013-05-24 03:53:00,